Regional Weather Roundup
Issued by NWS

Home | Current Version | Previous Version | Graphics & Text | Print | Product List | Glossary On
Versions: 1 2 3 4 5 6 7 8 9 10 11 12 13 14 15 16 17 18 19 20 21 22 23 24 25 26 27 28
000
ASUS45 KCYS 301210
RWRWY

WYOMING REGIONAL WEATHER ROUNDUP
NATIONAL WEATHER SERVICE CHEYENNE WY
600 AM MDT SAT JUL 30 2016

NOTE:  "FAIR" INDICATES FEW OR NO CLOUDS BELOW 12,000 FEET
WITH NO SIGNIFICANT WEATHER AND/OR OBSTRUCTIONS TO VISIBILITY.

WYZ001-301300-
YELLOWSTONE NATIONAL PARK

CITY           SKY/WX    TMP DP  RH WIND       PRES   REMARKS
LK YELLOWSTONE   N/A     42  41  96 CALM      30.20S
6HR MIN TEMP:  42; 6HR MAX TEMP:  50;

W YELLOWSTONE  NOT AVBL

$$
WYZ002>013-054>058-071-098>099-301300-
NORTHERN WYOMING

CITY           SKY/WX    TMP DP  RH WIND       PRES   REMARKS
JACKSON        FAIR      45  39  81 N3        30.12S
CODY           FAIR      55  48  76 CALM      30.01S
GREYBULL       FAIR      64  47  53 SE3       29.94F
6HR MIN TEMP:  62; 6HR MAX TEMP:  73;

WORLAND        FAIR      66  47  50 SE8       29.96F
6HR MIN TEMP:  58; 6HR MAX TEMP:  71;

SHERIDAN       FAIR      55  48  77 W3        29.93F
6HR MIN TEMP:  54; 6HR MAX TEMP:  68;

BUFFALO        FAIR      63  46  54 CALM      30.01S
6HR MIN TEMP:  58; 6HR MAX TEMP:  67;

GILLETTE       FAIR      59  56  89 S13       29.97F
6HR MIN TEMP:  59; 6HR MAX TEMP:  67;

HULETT         FAIR      61  54  77 W6        29.99F
NEWCASTLE      FAIR      64  52  63 CALM      30.00F

$$
WYZ014>020-022>026-101>103-301300-
CENTRAL WYOMING

CITY           SKY/WX    TMP DP  RH WIND       PRES   REMARKS
BIG PINEY      FAIR      45  29  53 MISG      30.19S
6HR MIN TEMP:  45; 6HR MAX TEMP:  59;

PINEDALE       PTSUNNY   43  36  75 W7        30.20S
DUBOIS         FAIR      48  39  71 W8        30.19R HAZE
LANDER         FAIR      58  43  57 NW5       30.08F
6HR MIN TEMP:  57; 6HR MAX TEMP:  68;

RIVERTON       FAIR      55  50  83 NW5       30.06F
6HR MIN TEMP:  55; 6HR MAX TEMP:  67;

CASPER         FAIR      52  50  93 NE7       30.06S
6HR MIN TEMP:  51; 6HR MAX TEMP:  60;

DOUGLAS        FAIR      57  54  89 NE6       30.04F
6HR MIN TEMP:  56; 6HR MAX TEMP:  63; 6HR PCP:  0.03;


$$
WYZ021-027>030-104>119-301300-
SOUTHERN WYOMING

CITY           SKY/WX    TMP DP  RH WIND       PRES   REMARKS
EVANSTON       FAIR      62  32  32 S7        30.17S
6HR MIN TEMP:  59; 6HR MAX TEMP:  72;

KEMMERER         N/A     52  30  43 N9        30.19S
FORT BRIDGER   FAIR      57  29  33 SE3       30.20S
ROCK SPRINGS   FAIR      60  45  57 E8        30.16S
6HR MIN TEMP:  58; 6HR MAX TEMP:  69;

DIXON          FAIR      46  33  60 SE6       30.18R
RAWLINS        FAIR      53  49  86 CALM      30.16R
6HR MIN TEMP:  51; 6HR MAX TEMP:  64;

SARATOGA       FAIR      46  37  71 CALM      30.18S
LARAMIE        FAIR      51  50  96 S9        30.16S FOG
6HR MIN TEMP:  51; 6HR MAX TEMP:  60;

CHEYENNE       FOG       60  60 100 S7        30.11S VSB 1/2
6HR MIN TEMP:  57; 6HR MAX TEMP:  61;

TORRINGTON     FAIR      58  57  97 S5        30.02S
6HR MIN TEMP:  58; 6HR MAX TEMP:  62;

PINE BLUFFS    FAIR      57  55  94 SE10      30.08S

$$




USA.gov is the U.S. government's official web portal to all federal, state and local government web resources and services.